{"data":{"norad_id":37930,"epoch":"2026-09-20T05:26:13.231392Z","epoch_age_seconds":52850,"freshness":"FRESH","line1":"1 37930U 11068A   26263.22654203  .00000065  00000+0  41922-4 0  9993","line2":"2 37930  98.6983 280.8509 0014510 193.7330 233.3513 14.30554639774240","mean_motion":14.30554639,"eccentricity":0.001451,"inclination_deg":98.6983,"raan_deg":280.8509,"arg_perigee_deg":193.733,"mean_anomaly_deg":233.3513,"bstar":4.1922e-5,"rev_number":77424,"period_min":100.66025866769,"perigee_km":779.47670211323,"apogee_km":800.27828016652,"semimajor_km":7168.0144911399,"source":"CELESTRAK","updated_at":"2026-09-20T09:00:13.815016Z"}}